,,PA_Meas_PMT16A,,PR_Meas_QMR101_102,,RH_Meas_QMH101,,SR_Meas_QMS101,,TA_Meas_QMH101,,GenWind,,GenWind,
time,status,PA,status,PR,status,RH,status,SR,status,TA,status,DirAvg,status,SpdAvg,
2011-02-01, 00:00:05,VALID,917.364,VALID,0,VALID,85.7329,VALID,0,VALID,20.3448,VALID,164,VALID,1.12305,
2011-02-01, 00:01:05,VALID,917.353,VALID,0,VALID,85.7406,VALID,0,VALID,20.3659,VALID,147,VALID,1.42578,
2011-02-01, 00:02:05,VALID,917.348,VALID,0,VALID,85.9616,VALID,0,VALID,20.3269,VALID,150,VALID,1.23008,
2011-02-01, 00:03:05,VALID,917.345,VALID,0,VALID,86.2818,VALID,0,VALID,20.2668,VALID,139,VALID,1.77891,
2011-02-01, 00:04:05,VALID,917.368,VALID,0,VALID,86.5563,VALID,0,VALID,20.2894,VALID,131,VALID,1.34336,
2011-02-01, 00:05:05,VALID,917.337,VALID,0,VALID,86.7468,VALID,0,VALID,20.2278,VALID,141,VALID,1.64336,
2011-02-01, 00:06:05,VALID,917.337,VALID,0,VALID,86.9451,VALID,0,VALID,20.2293,VALID,153,VALID,1.68984,
2011-02-01, 00:07:05,VALID,917.278,VALID,0,VALID,87.2271,VALID,0,VALID,20.1888,VALID,153,VALID,1.00078,
2011-02-01, 00:08:05,VALID,917.328,VALID,0,VALID,87.3872,VALID,0,VALID,20.1288,VALID,136,VALID,1.15586,
2011-02-01, 00:09:05,VALID,917.32,VALID,0,VALID,87.654,VALID,0,VALID,20.1303,VALID,146,VALID,1.61719,
2011-02-01, 00:10:05,VALID,917.309,VALID,0,VALID,87.8446,VALID,0,VALID,20.1139,VALID,146,VALID,1.34375,
2011-02-01, 00:11:05,VALID,917.274,VALID,0,VALID,88.0276,VALID,0,VALID,20.0538,VALID,146,VALID,1.39531,
2011-02-01, 00:12:05,VALID,917.302,VALID,0,VALID,88.3706,VALID,0,VALID,20.0343,VALID,143,VALID,0.7,
2011-02-01, 00:13:05,VALID,917.32,VALID,0,VALID,88.3554,VALID,0,VALID,19.9518,VALID,118,VALID,1.48633,
2011-02-01, 00:14:05,VALID,917.281,VALID,0,VALID,88.546,VALID,0,VALID,20.0148,VALID,107,VALID,1.03672,
2011-02-01, 00:15:05,VALID,917.319,VALID,0,VALID,88.8662,VALID,0,VALID,19.9743,VALID,122,VALID,1.52852,
2011-02-01, 00:16:05,VALID,917.303,VALID,0,VALID,89.2245,VALID,0,VALID,19.9368,VALID,129,VALID,1.8543,
2011-02-01, 00:17:05,VALID,917.326,VALID,0,VALID,89.5523,VALID,0,VALID,19.8558,VALID,127,VALID,1.10078,
2011-02-01, 00:18:05,VALID,917.316,VALID,0,VALID,89.72,VALID,0,VALID,19.8573,VALID,127,VALID,1.17109,
2011-02-01, 00:19:05,VALID,917.334,VALID,0,VALID,89.7733,VALID,0,VALID,19.8573,VALID,141,VALID,0.828516,
2011-02-01, 00:20:05,VALID,917.319,VALID,0,VALID,89.7733,VALID,0,VALID,19.8378,VALID,120,VALID,1.58867,
2011-02-01, 00:21:05,VALID,917.343,VALID,0,VALID,89.6437,VALID,0,VALID,19.8768,VALID,151,VALID,0.807422,
2011-02-01, 00:22:05,VALID,917.33,VALID,0,VALID,89.3998,VALID,0,VALID,19.8963,VALID,125,VALID,1.73594,
2011-02-01, 00:23:05,VALID,917.33,VALID,0,VALID,89.2702,VALID,0,VALID,19.9158,VALID,130,VALID,0.669141,
2011-02-01, 00:24:05,VALID,917.319,VALID,0,VALID,89.1025,VALID,0,VALID,19.9758,VALID,171,VALID,1.03203,
2011-02-01, 00:25:05,VALID,917.315,VALID,0,VALID,89.0872,VALID,0,VALID,19.9938,VALID,163,VALID,0.832812,
2011-02-01, 00:26:05,VALID,917.322,VALID,0,VALID,88.9805,VALID,0,VALID,20.0358,VALID,131,VALID,1.40625,
2011-02-01, 00:27:05,VALID,917.308,VALID,0,VALID,89.3007,VALID,0,VALID,20.0148,VALID,132,VALID,1.02148,
2011-02-01, 00:28:05,VALID,917.268,VALID,0,VALID,89.4989,VALID,0,VALID,19.9338,VALID,136,VALID,1.38398,
2011-02-01, 00:29:05,VALID,917.263,VALID,0,VALID,89.7352,VALID,0,VALID,19.9353,VALID,127,VALID,0.983594,
2011-02-01, 00:30:05,VALID,917.25,VALID,0,VALID,89.8801,VALID,0,VALID,19.8753,VALID,127,VALID,0.630078,
2011-02-01, 00:31:05,VALID,917.254,VALID,0,VALID,90.0935,VALID,0,VALID,19.8978,VALID,127,VALID,0.919531,
2011-02-01, 00:32:05,VALID,917.252,VALID,0,VALID,90.2689,VALID,0,VALID,19.8783,VALID,127,VALID,1.4168,
2011-02-01, 00:33:05,VALID,917.233,VALID,0,VALID,90.4671,VALID,0,VALID,19.8393,VALID,127,VALID,1.07969,
2011-02-01, 00:34:05,VALID,917.262,VALID,0,VALID,90.4213,VALID,0,VALID,19.8168,VALID,127,VALID,1.28672,
2011-02-01, 00:35:05,VALID,917.249,VALID,0,VALID,90.4595,VALID,0,VALID,19.7988,VALID,127,VALID,1.22539,
2011-02-01, 00:36:05,VALID,917.273,VALID,0,VALID,90.2689,VALID,0,VALID,19.7763,VALID,120,VALID,1.50508,
2011-02-01, 00:37:05,VALID,917.269,VALID,0,VALID,90.3299,VALID,0,VALID,19.8168,VALID,124,VALID,1.16172,
2011-02-01, 00:38:05,VALID,917.293,VALID,0,VALID,90.2612,VALID,0,VALID,19.8603,VALID,124,VALID,1.22266,
2011-02-01, 00:39:05,VALID,917.3,VALID,0,VALID,90.2994,VALID,0,VALID,19.8783,VALID,124,VALID,1.23828,
2011-02-01, 00:40:05,VALID,917.266,VALID,0,VALID,90.3375,VALID,0,VALID,19.8573,VALID,124,VALID,0.671875,
2011-02-01, 00:41:05,VALID,917.253,VALID,0,VALID,89.6666,VALID,0,VALID,19.8573,VALID,124,VALID,1.34219,
2011-02-01, 00:42:05,VALID,917.281,VALID,0,VALID,89.8725,VALID,0,VALID,19.9383,VALID,124,VALID,1.19023,
2011-02-01, 00:43:05,VALID,917.295,VALID,0,VALID,90.0707,VALID,0,VALID,19.9173,VALID,107,VALID,1.42461,
2011-02-01, 00:44:05,VALID,917.284,VALID,0,VALID,90.063,VALID,0.107441,VALID,19.8978,VALID,115,VALID,1.35664,
2011-02-01, 00:45:05,VALID,917.256,VALID,0,VALID,89.8496,VALID,0,VALID,19.9158,VALID,105,VALID,1.49648,
2011-02-01, 00:46:05,VALID,917.274,VALID,0,VALID,90.124,VALID,0,VALID,19.9158,VALID,106,VALID,1.21523,
2011-02-01, 00:47:05,VALID,917.283,VALID,0,VALID,89.9639,VALID,0,VALID,19.9173,VALID,102,VALID,1.17031,
2011-02-01, 00:48:05,VALID,917.272,VALID,0,VALID,90.2308,VALID,0.107441,VALID,19.9173,VALID,158,VALID,1.18203,
2011-02-01, 00:49:05,VALID,917.247,VALID,0,VALID,90.0783,VALID,0,VALID,19.8963,VALID,143,VALID,1.0832,
2011-02-01, 00:50:05,VALID,917.234,VALID,0,VALID,89.9944,VALID,0,VALID,19.8963,VALID,125,VALID,1.63203,
2011-02-01, 00:51:05,VALID,917.233,VALID,0,VALID,90.1926,VALID,0,VALID,19.8573,VALID,121,VALID,1.40117,
2011-02-01, 00:52:05,VALID,917.224,VALID,0,VALID,90.2841,VALID,0,VALID,19.9188,VALID,123,VALID,1.38789,
2011-02-01, 00:53:05,VALID,917.224,VALID,0,VALID,90.4137,VALID,0,VALID,19.8768,VALID,109,VALID,1.40039,
2011-02-01, 00:54:05,VALID,917.198,VALID,0,VALID,90.2841,VALID,0,VALID,19.8393,VALID,114,VALID,1.71484,
2011-02-01, 00:55:05,VALID,917.205,VALID,0,VALID,90.4747,VALID,0,VALID,19.8573,VALID,111,VALID,1.37852,
2011-02-01, 00:56:05,VALID,917.176,VALID,0,VALID,90.4823,VALID,0,VALID,19.8798,VALID,111,VALID,1.1418,
2011-02-01, 00:57:05,VALID,917.184,VALID,0,VALID,90.6882,VALID,0,VALID,19.8798,VALID,111,VALID,0.763672,
2011-02-01, 00:58:05,VALID,917.158,VALID,0,VALID,90.4442,VALID,0,VALID,19.8183,VALID,111,VALID,1.69727,
2011-02-01, 00:59:05,VALID,917.109,VALID,0,VALID,90.3222,VALID,0,VALID,19.8588,VALID,63,VALID,1.74766,
2011-02-01, 01:00:05,VALID,917.099,VALID,0,VALID,90.0021,VALID,0,VALID,19.8588,VALID,128,VALID,1.98594,
2011-02-01, 01:01:05,VALID,917.072,VALID,0,VALID,89.72,VALID,0,VALID,19.8783,VALID,132,VALID,1.79961,
2011-02-01, 01:02:05,VALID,917.099,VALID,0,VALID,89.5751,VALID,0,VALID,19.8768,VALID,122,VALID,2.06562,
2011-02-01, 01:03:05,VALID,917.102,VALID,0,VALID,89.7124,VALID,0,VALID,19.9173,VALID,127,VALID,1.28203,
2011-02-01, 01:04:05,VALID,917.131,VALID,0,VALID,89.7581,VALID,0,VALID,19.9158,VALID,142,VALID,1.51094,
2011-02-01, 01:05:05,VALID,917.128,VALID,0,VALID,89.8801,VALID,0,VALID,19.9368,VALID,132,VALID,1.2293,
2011-02-01, 01:06:05,VALID,917.15,VALID,0,VALID,89.6742,VALID,0,VALID,19.9173,VALID,142,VALID,1.39063,
2011-02-01, 01:07:05,VALID,917.182,VALID,0,VALID,89.7352,VALID,0,VALID,19.8963,VALID,128,VALID,0.737109,
2011-02-01, 01:08:05,VALID,917.145,VALID,0,VALID,89.7581,VALID,0,VALID,19.8963,VALID,128,VALID,0.966016,
2011-02-01, 01:09:05,VALID,917.13,VALID,0,VALID,89.9334,VALID,0,VALID,19.8963,VALID,136,VALID,0.770312,
2011-02-01, 01:10:05,VALID,917.065,VALID,0,VALID,89.659,VALID,0,VALID,19.8963,VALID,140,VALID,1.10781,
2011-02-01, 01:11:05,VALID,917.056,VALID,0,VALID,89.9716,VALID,0,VALID,19.9188,VALID,130,VALID,1.3082,
2011-02-01, 01:12:05,VALID,916.987,VALID,0,VALID,90.4518,VALID,0,VALID,19.8378,VALID,103,VALID,1.55195,
2011-02-01, 01:13:05,VALID,916.974,VALID,0,VALID,89.6056,VALID,0,VALID,19.8348,VALID,125,VALID,2.38086,
2011-02-01, 01:14:05,VALID,916.922,VALID,0,VALID,89.6437,VALID,0,VALID,19.8948,VALID,134,VALID,1.83789,
2011-02-01, 01:15:05,VALID,916.887,VALID,0,VALID,89.9182,VALID,0,VALID,19.8768,VALID,124,VALID,1.30156,
2011-02-01, 01:16:05,VALID,916.913,VALID,0,VALID,90.124,VALID,0,VALID,19.8783,VALID,130,VALID,1.9918,
2011-02-01, 01:17:05,VALID,916.901,VALID,0,VALID,90.3832,VALID,0,VALID,19.8378,VALID,127,VALID,1.83672,
2011-02-01, 01:18:05,VALID,916.858,VALID,0,VALID,90.5509,VALID,0,VALID,19.7988,VALID,121,VALID,1.16641,
2011-02-01, 01:19:05,VALID,916.849,VALID,0,VALID,90.6882,VALID,0,VALID,19.8198,VALID,129,VALID,1.87539,
2011-02-01, 01:20:05,VALID,916.846,VALID,0,VALID,90.7034,VALID,0,VALID,19.7793,VALID,160,VALID,1.41836,
2011-02-01, 01:21:05,VALID,916.868,VALID,0,VALID,90.8254,VALID,0,VALID,19.8003,VALID,135,VALID,1.67266,
2011-02-01, 01:22:05,VALID,916.841,VALID,0,VALID,90.9473,VALID,0,VALID,19.7808,VALID,120,VALID,1.79453,
2011-02-01, 01:23:04,VALID,916.802,VALID,0,VALID,91.298,VALID,0,VALID,19.7613,VALID,111,VALID,1.35,
2011-02-01, 01:24:04,VALID,916.797,VALID,0,VALID,91.4276,VALID,0,VALID,19.7013,VALID,114,VALID,1.875,
2011-02-01, 01:25:04,VALID,916.795,VALID,0,VALID,91.7707,VALID,0,VALID,19.6623,VALID,111,VALID,0.873047,
2011-02-01, 01:26:04,VALID,916.805,VALID,0,VALID,91.9689,VALID,0,VALID,19.6428,VALID,100,VALID,1.32422,
2011-02-01, 01:27:04,VALID,916.799,VALID,0,VALID,92.0832,VALID,0,VALID,19.6443,VALID,101,VALID,0.998828,
2011-02-01, 01:28:04,VALID,916.768,VALID,0,VALID,92.1671,VALID,0.107441,VALID,19.6458,VALID,101,VALID,1.1543,
2011-02-01, 01:29:04,VALID,916.834,VALID,0,VALID,92.2281,VALID,0,VALID,19.5633,VALID,130,VALID,1.55469,
2011-02-01, 01:30:04,VALID,916.798,VALID,0,VALID,92.1976,VALID,0,VALID,19.5633,VALID,135,VALID,1.19336,
2011-02-01, 01:31:04,VALID,916.814,VALID,0,VALID,92.2967,VALID,0,VALID,19.5843,VALID,135,VALID,1.20938,
2011-02-01, 01:32:04,VALID,916.766,VALID,0,VALID,92.4263,VALID,0,VALID,19.6263,VALID,135,VALID,0.986719,
2011-02-01, 01:33:04,VALID,916.774,VALID,0,VALID,92.5483,VALID,0,VALID,19.5843,VALID,135,VALID,1.11055,
2011-02-01, 01:34:04,VALID,916.751,VALID,0,VALID,92.5711,VALID,0,VALID,19.5648,VALID,135,VALID,1.31094,
2011-02-01, 01:35:04,VALID,916.738,VALID,0,VALID,92.5483,VALID,0,VALID,19.5678,VALID,127,VALID,1.35781,
2011-02-01, 01:36:04,VALID,916.68,VALID,0,VALID,92.6931,VALID,0,VALID,19.5243,VALID,116,VALID,0.76875,
2011-02-01, 01:37:04,VALID,916.684,VALID,0,VALID,92.716,VALID,0,VALID,19.5258,VALID,127,VALID,1.26445,
2011-02-01, 01:38:04,VALID,916.649,VALID,0,VALID,92.7465,VALID,0,VALID,19.5873,VALID,126,VALID,1.10156,
2011-02-01, 01:39:04,VALID,916.661,VALID,0,VALID,92.9599,VALID,0.107441,VALID,19.4853,VALID,126,VALID,0.797266,
2011-02-01, 01:40:04,VALID,916.632,VALID,0,VALID,92.9447,VALID,0,VALID,19.5063,VALID,121,VALID,1.11094,
2011-02-01, 01:41:04,VALID,916.642,VALID,0,VALID,92.9599,VALID,0,VALID,19.5063,VALID,121,VALID,1.27227,
2011-02-01, 01:42:04,VALID,916.652,VALID,0,VALID,92.9371,VALID,0,VALID,19.5273,VALID,126,VALID,1.3,
2011-02-01, 01:43:04,VALID,916.636,VALID,0,VALID,92.8913,VALID,0,VALID,19.5273,VALID,126,VALID,1.05469,
2011-02-01, 01:44:04,VALID,916.592,VALID,0,VALID,92.9218,VALID,0,VALID,19.5483,VALID,126,VALID,1.22773,
2011-02-01, 01:45:04,VALID,916.597,VALID,0,VALID,92.8608,VALID,0,VALID,19.5063,VALID,126,VALID,1.58281,
2011-02-01, 01:46:04,VALID,916.572,VALID,0,VALID,92.9142,VALID,0,VALID,19.5273,VALID,126,VALID,0.819141,
2011-02-01, 01:47:04,VALID,916.534,VALID,0,VALID,93.0133,VALID,0,VALID,19.5063,VALID,126,VALID,1.05273,
2011-02-01, 01:48:04,VALID,916.548,VALID,0,VALID,93.0819,VALID,0,VALID,19.5063,VALID,126,VALID,0.915234,
2011-02-01, 01:49:04,VALID,916.534,VALID,0,VALID,93.0972,VALID,0,VALID,19.5078,VALID,112,VALID,1.64805,
2011-02-01, 01:50:04,VALID,916.522,VALID,0,VALID,93.1734,VALID,0,VALID,19.4883,VALID,128,VALID,0.923828,
2011-02-01, 01:51:04,VALID,916.5,VALID,0,VALID,93.3411,VALID,0,VALID,19.4673,VALID,128,VALID,0.726953,
2011-02-01, 01:52:04,VALID,916.505,VALID,0,VALID,93.2268,VALID,0,VALID,19.4688,VALID,114,VALID,1.61016,
2011-02-01, 01:53:04,VALID,916.51,VALID,0,VALID,93.181,VALID,0,VALID,19.4478,VALID,115,VALID,1.8707,
2011-02-01, 01:54:04,VALID,916.505,VALID,0,VALID,93.2954,VALID,0,VALID,19.4688,VALID,119,VALID,1.57813,
2011-02-01, 01:55:04,VALID,916.484,VALID,0,VALID,93.425,VALID,0,VALID,19.4478,VALID,113,VALID,1.04023,
2011-02-01, 01:56:04,VALID,916.527,VALID,0,VALID,93.4631,VALID,0,VALID,19.4493,VALID,113,VALID,1.07109,
2011-02-01, 01:57:04,VALID,916.504,VALID,0,VALID,93.4783,VALID,0,VALID,19.4493,VALID,115,VALID,1.55703,
2011-02-01, 01:58:04,VALID,916.501,VALID,0,VALID,93.5546,VALID,0,VALID,19.4283,VALID,141,VALID,1.15273,
2011-02-01, 01:59:04,VALID,916.478,VALID,0,VALID,93.6765,VALID,0,VALID,19.4493,VALID,141,VALID,0.708984,
2011-02-01, 02:00:04,VALID,916.485,VALID,0,VALID,93.6003,VALID,0,VALID,19.4298,VALID,144,VALID,0.779297,
2011-02-01, 02:01:04,VALID,916.459,VALID,0,VALID,93.5622,VALID,0,VALID,19.4283,VALID,125,VALID,0.834375,
2011-02-01, 02:02:04,VALID,916.497,VALID,0,VALID,93.4707,VALID,0,VALID,19.4688,VALID,145,VALID,0.723047,
2011-02-01, 02:03:04,VALID,916.481,VALID,0,VALID,93.4783,VALID,0,VALID,19.5093,VALID,145,VALID,0.975391,
2011-02-01, 02:04:04,VALID,916.438,VALID,0,VALID,93.2039,VALID,0,VALID,19.4883,VALID,122,VALID,1.12461,
2011-02-01, 02:05:04,VALID,916.439,VALID,0,VALID,93.12,VALID,0,VALID,19.5078,VALID,138,VALID,1.21406,
2011-02-01, 02:06:04,VALID,916.446,VALID,0,VALID,93.0057,VALID,0,VALID,19.5078,VALID,175,VALID,0.530859,
2011-02-01, 02:07:04,VALID,916.445,VALID,0,VALID,92.9523,VALID,0,VALID,19.5468,VALID,166,VALID,0.969922,
2011-02-01, 02:08:04,VALID,916.442,VALID,0,VALID,92.8151,VALID,0,VALID,19.5468,VALID,163,VALID,1.1125,
2011-02-01, 02:09:04,VALID,916.456,VALID,0,VALID,92.7693,VALID,0,VALID,19.5453,VALID,161,VALID,0.43125,
2011-02-01, 02:10:04,VALID,916.445,VALID,0,VALID,92.6397,VALID,0,VALID,19.5663,VALID,161,VALID,0.691016,
2011-02-01, 02:11:04,VALID,916.452,VALID,0,VALID,92.4492,VALID,0,VALID,19.5648,VALID,125,VALID,1.39883,
2011-02-01, 02:12:04,VALID,916.469,VALID,0,VALID,92.3806,VALID,0,VALID,19.6053,VALID,165,VALID,0.442187,
2011-02-01, 02:13:04,VALID,916.492,VALID,0,VALID,92.2738,VALID,0,VALID,19.6233,VALID,146,VALID,0.521875,
2011-02-01, 02:14:04,VALID,916.48,VALID,0,VALID,92.2128,VALID,0.107441,VALID,19.6638,VALID,146,VALID,1.09453,
2011-02-01, 02:15:04,VALID,916.481,VALID,0,VALID,91.8545,VALID,0,VALID,19.6623,VALID,146,VALID,0.626953,
2011-02-01, 02:16:04,VALID,916.488,VALID,0,VALID,91.7249,VALID,0,VALID,19.7028,VALID,146,VALID,0.848437,
2011-02-01, 02:17:04,VALID,916.508,VALID,0,VALID,91.7631,VALID,0,VALID,19.7028,VALID,146,VALID,0.844922,
2011-02-01, 02:18:04,VALID,916.473,VALID,0,VALID,91.5572,VALID,0,VALID,19.7028,VALID,146,VALID,1.19336,
2011-02-01, 02:19:04,VALID,916.484,VALID,0,VALID,91.6868,VALID,0.107441,VALID,19.7013,VALID,146,VALID,0.757031,
2011-02-01, 02:20:04,VALID,916.46,VALID,0,VALID,91.6182,VALID,0,VALID,19.7223,VALID,146,VALID,0.714844,
2011-02-01, 02:21:04,VALID,916.491,VALID,0,VALID,91.5648,VALID,0,VALID,19.7223,VALID,146,VALID,0.209375,
2011-02-01, 02:22:04,VALID,916.499,VALID,0,VALID,91.4657,VALID,0,VALID,19.7418,VALID,146,VALID,0.642578,
2011-02-01, 02:23:04,VALID,916.507,VALID,0,VALID,91.5115,VALID,0,VALID,19.7418,VALID,146,VALID,0.440625,
2011-02-01, 02:24:04,VALID,916.478,VALID,0,VALID,91.5725,VALID,0,VALID,19.7418,VALID,146,VALID,0.519141,
2011-02-01, 02:25:04,VALID,916.466,VALID,0,VALID,91.6258,VALID,0,VALID,19.7418,VALID,146,VALID,0.275391,
2011-02-01, 02:26:04,VALID,916.491,VALID,0,VALID,91.5953,VALID,0,VALID,19.7223,VALID,146,VALID,0.80625,
2011-02-01, 02:27:04,VALID,916.513,VALID,0,VALID,91.5801,VALID,0,VALID,19.7013,VALID,146,VALID,0.366406,
2011-02-01, 02:28:04,VALID,916.461,VALID,0,VALID,91.6792,VALID,0,VALID,19.7208,VALID,146,VALID,0.802734,
2011-02-01, 02:29:04,VALID,916.481,VALID,0,VALID,91.4734,VALID,0,VALID,19.7418,VALID,147,VALID,0.407422,
2011-02-01, 02:30:04,VALID,916.423,VALID,0,VALID,91.481,VALID,0,VALID,19.7418,VALID,147,VALID,1.01055,
2011-02-01, 02:31:04,VALID,916.44,VALID,0,VALID,91.5877,VALID,0,VALID,19.7223,VALID,147,VALID,0.894531,
2011-02-01, 02:32:04,VALID,916.424,VALID,0,VALID,91.6182,VALID,0.107441,VALID,19.7223,VALID,147,VALID,1.07109,
2011-02-01, 02:33:04,VALID,916.386,VALID,0,VALID,91.5039,VALID,0,VALID,19.6818,VALID,151,VALID,1.06094,
2011-02-01, 02:34:04,VALID,916.375,VALID,0,VALID,91.5496,VALID,0.107441,VALID,19.7028,VALID,148,VALID,1.37461,
2011-02-01, 02:35:04,VALID,916.382,VALID,0,VALID,91.6258,VALID,0,VALID,19.7028,VALID,148,VALID,0.743359,
2011-02-01, 02:36:04,VALID,916.362,VALID,0,VALID,91.4352,VALID,0,VALID,19.7028,VALID,141,VALID,1.2918,
2011-02-01, 02:37:04,VALID,916.37,VALID,0,VALID,91.4505,VALID,0,VALID,19.7223,VALID,149,VALID,0.900781,
2011-02-01, 02:38:04,VALID,916.339,VALID,0,VALID,91.3819,VALID,0,VALID,19.7418,VALID,152,VALID,0.754687,
2011-02-01, 02:39:04,VALID,916.333,VALID,0,VALID,91.4276,VALID,0,VALID,19.7208,VALID,152,VALID,0.964063,
2011-02-01, 02:40:04,VALID,916.306,VALID,0,VALID,91.5344,VALID,0,VALID,19.7013,VALID,152,VALID,0.802734,
2011-02-01, 02:41:04,VALID,916.325,VALID,0,VALID,91.7021,VALID,0,VALID,19.7028,VALID,152,VALID,0.421484,
2011-02-01, 02:42:04,VALID,916.302,VALID,0,VALID,91.7783,VALID,0,VALID,19.6833,VALID,152,VALID,0.337109,
2011-02-01, 02:43:04,VALID,916.271,VALID,0,VALID,91.664,VALID,0,VALID,19.6833,VALID,152,VALID,0.824219,
2011-02-01, 02:44:04,VALID,916.214,VALID,0,VALID,91.5267,VALID,0,VALID,19.6833,VALID,152,VALID,0.86875,
2011-02-01, 02:45:04,VALID,916.227,VALID,0,VALID,91.3666,VALID,0,VALID,19.6833,VALID,152,VALID,0.810156,
2011-02-01, 02:46:04,VALID,916.214,VALID,0,VALID,91.7783,VALID,0,VALID,19.6818,VALID,151,VALID,0.315234,
2011-02-01, 02:47:04,VALID,916.23,VALID,0,VALID,91.603,VALID,0,VALID,19.6638,VALID,151,VALID,0.54375,
2011-02-01, 02:48:04,VALID,916.202,VALID,0,VALID,91.603,VALID,0,VALID,19.6233,VALID,151,VALID,0,
2011-02-01, 02:49:04,VALID,916.188,VALID,0,VALID,91.6258,VALID,0,VALID,19.6638,VALID,151,VALID,0,
2011-02-01, 02:50:04,VALID,916.152,VALID,0,VALID,91.5648,VALID,0,VALID,19.6428,VALID,151,VALID,0.569531,
2011-02-01, 02:51:04,VALID,916.175,VALID,0,VALID,91.6792,VALID,0,VALID,19.6638,VALID,151,VALID,0.142578,
2011-02-01, 02:52:04,VALID,916.154,VALID,0,VALID,91.2142,VALID,0,VALID,19.6233,VALID,151,VALID,0.953125,
2011-02-01, 02:53:04,VALID,916.154,VALID,0,VALID,91.1913,VALID,0,VALID,19.6833,VALID,151,VALID,0.666406,
2011-02-01, 02:54:04,VALID,916.143,VALID,0,VALID,91.2142,VALID,0,VALID,19.6638,VALID,151,VALID,0.753516,
2011-02-01, 02:55:04,VALID,916.135,VALID,0,VALID,91.3514,VALID,0,VALID,19.6638,VALID,151,VALID,0.634766,
2011-02-01, 02:56:04,VALID,916.133,VALID,0,VALID,91.3895,VALID,0,VALID,19.6443,VALID,151,VALID,0.707031,
2011-02-01, 02:57:04,VALID,916.119,VALID,0,VALID,91.4734,VALID,0,VALID,19.6038,VALID,151,VALID,0.645703,
2011-02-01, 02:58:04,VALID,916.106,VALID,0,VALID,91.5725,VALID,0,VALID,19.6053,VALID,151,VALID,0.876172,
2011-02-01, 02:59:04,VALID,916.102,VALID,0,VALID,91.5115,VALID,0,VALID,19.5648,VALID,151,VALID,1.33477,
2011-02-01, 03:00:04,VALID,916.076,VALID,0,VALID,91.5877,VALID,0,VALID,19.5663,VALID,151,VALID,0.729297,
2011-02-01, 03:01:04,VALID,916.084,VALID,0,VALID,91.7478,VALID,0,VALID,19.5453,VALID,151,VALID,0.739453,
2011-02-01, 03:02:04,VALID,916.042,VALID,0,VALID,91.6563,VALID,0,VALID,19.5468,VALID,151,VALID,0.711719,
2011-02-01, 03:03:04,VALID,916.034,VALID,0,VALID,91.6411,VALID,0,VALID,19.5663,VALID,151,VALID,0.822266,
2011-02-01, 03:04:04,VALID,916.027,VALID,0,VALID,91.3057,VALID,0,VALID,19.5858,VALID,150,VALID,0.70625,
2011-02-01, 03:05:04,VALID,916.037,VALID,0,VALID,91.2142,VALID,0,VALID,19.6068,VALID,149,VALID,1.11328,
2011-02-01, 03:06:04,VALID,916.035,VALID,0,VALID,91.2142,VALID,0,VALID,19.6248,VALID,148,VALID,0.549609,
2011-02-01, 03:07:04,VALID,916.059,VALID,0,VALID,91.3057,VALID,0,VALID,19.6053,VALID,148,VALID,1.05,
2011-02-01, 03:08:04,VALID,916.042,VALID,0,VALID,91.0312,VALID,0,VALID,19.6053,VALID,142,VALID,0.879297,
2011-02-01, 03:09:04,VALID,916.056,VALID,0,VALID,90.9245,VALID,0,VALID,19.5858,VALID,142,VALID,0.9875,
2011-02-01, 03:10:04,VALID,916.069,VALID,0,VALID,90.9855,VALID,0,VALID,19.5858,VALID,142,VALID,0.513672,
2011-02-01, 03:11:04,VALID,916.086,VALID,0,VALID,90.711,VALID,0,VALID,19.5858,VALID,142,VALID,1.37031,
2011-02-01, 03:12:04,VALID,916.056,VALID,0,VALID,90.772,VALID,0,VALID,19.5843,VALID,142,VALID,0.658594,
2011-02-01, 03:13:04,VALID,916.07,VALID,0,VALID,90.9321,VALID,0,VALID,19.5858,VALID,119,VALID,0.402344,
2011-02-01, 03:14:04,VALID,916.038,VALID,0,VALID,90.8101,VALID,0,VALID,19.5663,VALID,133,VALID,1.56484,
2011-02-01, 03:15:04,VALID,916.041,VALID,0,VALID,90.6272,VALID,0,VALID,19.5648,VALID,139,VALID,1.63516,
2011-02-01, 03:16:04,VALID,915.959,VALID,0,VALID,90.4976,VALID,0,VALID,19.5858,VALID,137,VALID,1.58906,
2011-02-01, 03:17:04,VALID,915.964,VALID,0,VALID,90.2231,VALID,0,VALID,19.5843,VALID,170,VALID,1.86133,
2011-02-01, 03:18:04,VALID,915.924,VALID,0,VALID,90.1774,VALID,0,VALID,19.6248,VALID,131,VALID,1.3668,
2011-02-01, 03:19:04,VALID,915.912,VALID,0,VALID,90.1088,VALID,0,VALID,19.6038,VALID,123,VALID,1.69219,
2011-02-01, 03:20:04,VALID,915.897,VALID,0,VALID,89.4455,VALID,0,VALID,19.6248,VALID,131,VALID,2.52813,
2011-02-01, 03:21:04,VALID,915.893,VALID,0,VALID,89.6285,VALID,0.107441,VALID,19.6443,VALID,130,VALID,1.88594,
2011-02-01, 03:22:04,VALID,915.912,VALID,0,VALID,89.5751,VALID,0,VALID,19.6638,VALID,102,VALID,1.66562,
2011-02-01, 03:23:04,VALID,915.894,VALID,0,VALID,89.6666,VALID,0,VALID,19.6038,VALID,123,VALID,1.6043,
2011-02-01, 03:24:04,VALID,915.853,VALID,0,VALID,89.3388,VALID,0,VALID,19.6053,VALID,124,VALID,1.73086,
2011-02-01, 03:25:04,VALID,915.831,VALID,0,VALID,89.1482,VALID,0,VALID,19.6443,VALID,124,VALID,1.26992,
2011-02-01, 03:26:04,VALID,915.831,VALID,0,VALID,88.9958,VALID,0,VALID,19.6443,VALID,131,VALID,1.38594,
2011-02-01, 03:27:04,VALID,915.821,VALID,0,VALID,88.3935,VALID,0,VALID,19.6623,VALID,135,VALID,2.53984,
2011-02-01, 03:28:04,VALID,915.82,VALID,0,VALID,88.3706,VALID,0,VALID,19.7223,VALID,110,VALID,1.51953,
2011-02-01, 03:29:04,VALID,915.817,VALID,0,VALID,88.2105,VALID,0.107441,VALID,19.7433,VALID,112,VALID,1.68789,
2011-02-01, 03:30:04,VALID,915.798,VALID,0,VALID,88.1419,VALID,0,VALID,19.7418,VALID,146,VALID,0.528906,
2011-02-01, 03:31:04,VALID,915.814,VALID,0,VALID,88.3097,VALID,0,VALID,19.7208,VALID,99,VALID,1.67148,
2011-02-01, 03:32:04,VALID,915.785,VALID,0,VALID,88.4316,VALID,0,VALID,19.7628,VALID,112,VALID,1.69141,
2011-02-01, 03:33:04,VALID,915.79,VALID,0,VALID,88.424,VALID,0,VALID,19.7028,VALID,136,VALID,2.25664,
2011-02-01, 03:34:04,VALID,915.764,VALID,0,VALID,88.3173,VALID,0,VALID,19.7223,VALID,159,VALID,0.913672,
2011-02-01, 03:35:04,VALID,915.735,VALID,0,VALID,88.3173,VALID,0,VALID,19.7028,VALID,120,VALID,1.78477,
2011-02-01, 03:36:04,VALID,915.703,VALID,0,VALID,88.2182,VALID,0,VALID,19.7223,VALID,111,VALID,2.02617,
2011-02-01, 03:37:04,VALID,915.699,VALID,0,VALID,87.8141,VALID,0,VALID,19.7208,VALID,134,VALID,2.46211,
2011-02-01, 03:38:04,VALID,915.693,VALID,0,VALID,87.9437,VALID,0,VALID,19.7598,VALID,123,VALID,1.6793,
2011-02-01, 03:39:04,VALID,915.689,VALID,0,VALID,88.2868,VALID,0,VALID,19.8018,VALID,116,VALID,1.28828,
2011-02-01, 03:40:04,VALID,915.669,VALID,0,VALID,88.607,VALID,0.107441,VALID,19.6833,VALID,123,VALID,1.31836,
2011-02-01, 03:41:04,VALID,915.736,VALID,0,VALID,88.7747,VALID,0,VALID,19.6038,VALID,97,VALID,1.96367,
2011-02-01, 03:42:04,VALID,915.734,VALID,0,VALID,88.4621,VALID,0,VALID,19.6653,VALID,128,VALID,1.88125,
2011-02-01, 03:43:04,VALID,915.747,VALID,0,VALID,88.2944,VALID,0.107441,VALID,19.7433,VALID,98,VALID,2.36562,
2011-02-01, 03:44:04,VALID,915.769,VALID,0,VALID,88.2792,VALID,0,VALID,19.7013,VALID,140,VALID,2.20234,
2011-02-01, 03:45:04,VALID,915.777,VALID,0,VALID,88.1648,VALID,0,VALID,19.7613,VALID,128,VALID,2.41914,